Regional Weather Roundup
Issued by NWS New Orleans/Baton Rouge, LA

Home | Current Version | Previous Version | Text Only | Print | Product List | Glossary Off
Versions: 1 2 3 4 5 6 7 8 9 10 11 12 13 14 15 16 17 18 19 20 21 22 23 24 25 26 27 28 29 30 31 32 33 34 35 36 37 38 39 40 41 42 43 44 45 46 47 48 49 50

753
ASUS44 KLIX 220910
RWRLIX
NEW ORLEANS REGIONAL WEATHER ROUNDUP
NATIONAL WEATHER SERVICE NEW ORLEANS LA
300 AM CST MON DEC 22 2014

NOTE: "FAIR" INDICATES FEW OR NO CLOUDS BELOW 12,000 FEET WITH NO
      SIGNIFICANT WEATHER AND/OR OBSTRUCTIONS TO VISIBILITY.
      SKY/WX - SKY CONDITION AND SIGNIFICANT WEATHER.
      TMP - AIR TEMPERATURE.     DP    - DEWPOINT TEMPERATURE.
      RH  - RELATIVE HUMIDITY.   PRES  - PRESSURE.
      HI  - HEAT INDEX.          WCI   - WIND CHILL INDEX.

*  THESE STATIONS ARE NOT NWS OR FAA STATIONS AND ARE NOT UNDER
   NWS QUALITY CONTROL.

LAZ038-040-048-061>063-065>067-069-221000-
SOUTHEAST LOUISIANA

CITY           SKY/WX    TMP DP  RH WIND       PRES   REMARKS
N.O. AUDUBON     N/A     59  59 100 MISG        N/A
N.O. INTL ARPT FOG       57  56  96 E6        29.88F VSB 1/2
N.O. LAKEFRONT CLOUDY    58  56  93 E9        29.89F FOG
N.O. DOWNTOWN* CLOUDY    57  54  88 E7        29.89F
SLIDELL        FOG       57  55  93 E7        29.88F VSB 1
BATON ROUGE    FOG       54  53  97 E3        29.88S VSB 1/2
BOOTHVILLE     CLOUDY    59  59 100 E7        29.87F FOG
BELLE CHASSE   CLOUDY    59  57  93 E7        29.87F FOG
BOGALUSA*      FOG       56  53  89 CALM      29.90F VSB 1
GALLIANO*      DRIZZLE   55  55  98 MISG      29.88F
NEW ROADS*     CLOUDY    53  52  97 CALM      29.89S FOG
GONZALES*      CLOUDY    56  56 100 CALM      29.87F FOG
HAMMOND*       NOT AVBL
HOUMA*         CLOUDY    57  57  98 NE3       29.87F FOG
PORT FOURCHON* CLOUDY    63  61  94 CALM      29.91S FOG

$$

MSZ070-080>082-221000-
SOUTHERN MISSISSIPPI

CITY           SKY/WX    TMP DP  RH WIND       PRES   REMARKS
MCCOMB         CLOUDY    53  52  96 E6        29.89R FOG
GULFPORT       CLOUDY    57  55  93 E7        29.90F
BILOXI         CLOUDY    57  57 100 E5        29.91F
PASCAGOULA     CLOUDY    57  55  93 E6        29.92F

$$

COASTAL OBSERVATIONS
LAKE AND NEARSHORE STATIONS

STATION/POSITION TIME  TEMP    WIND        PRES    WAVE
                       AIR SEA DIR/SP/G            HT/PER
                 (UTC) (F)     (DEG/KT/KT) (MB)    (FT/S)
PASCAGOULA       0900   58      70/  9/ 12 1012.6
WAVELAND YACHT   0900   57     100/  6/  9 1011.7
GRAND ISLE       0900   63 60  310/  5/  5 1012.3
SOUTHWEST PASS   0900   66                 1012.4
NEW CANAL        0900   57 56   80/  5/  9 1012.1
SHELL BEACH      0900   58 57   80/ 11/ 13 1011.3

OFFSHORE STATIONS

STATION/POSITION TIME  TEMP    WIND        PRES    WAVE
                       AIR SEA DIR/SP/G            HT/PER
                 (UTC) (F)     (DEG/KT/KT) (MB)    (FT/S)
64 S DAUPHIN ISL 0900   71 74  130/ 14/ 16 1011.9    3/ 5

$$




USA.gov is the U.S. government's official web portal to all federal, state and local government web resources and services.